{"data":{"norad_id":53198,"intl_designator":"2022-084K","name":"STARLINK-4385","alt_names":[],"object_type":"PAYLOAD","status":"ACTIVE","operator":null,"country":"US","launch_date":"2022-07-22","launch_site_code":"AFWTR","launch_vehicle":null,"mission":null,"orbit_class":"UNKNOWN","rcs_meters":null,"size_class":null,"mass_kg":null,"dimensions":null,"purposes":["comms"],"wikipedia_slug":null,"has_3d_model":false,"image_url":null,"decayed_at":null,"tle_current":{"epoch":"2026-05-25T03:38:50.896608Z","epoch_age_seconds":72634,"freshness":"FRESH","line1":"1 53198U 22084K   26145.15197797 -.00006071  00000+0 -41663-3 0  9994","line2":"2 53198  97.4449 205.1618 0001244 176.9225 183.2010 15.05691515211479","mean_motion":15.05691515,"eccentricity":0.0001244,"inclination_deg":97.4449,"raan_deg":205.1618,"arg_perigee_deg":176.9225,"mean_anomaly_deg":183.201,"bstar":-0.00041663,"rev_number":21147,"period_min":95.637119931568,"perigee_km":548.52203022916,"apogee_km":550.24559740764,"semimajor_km":6927.5208138184,"source":"CELESTRAK","updated_at":"2026-05-25T13:38:17.350125Z"}}}